Weather History for Gulkana, AK

Change the Weather History Date:

Saturday, January 12, 2013

  Actual Average Record
Temperature  
Mean Temperature 15 °F -  
Max Temperature 33 °F 0 °F 43 °F (1984)
Min Temperature -2 °F -14 °F -57 °F (1972)
Degree Days  
Heating Degree Days 50    
Moisture  
Dew Point 8 °F    
Average Humidity 85    
Maximum Humidity 92    
Minimum Humidity 78    
Precipitation  
Precipitation 0.00 in - - ()
Snow  
Snow 0.00 in - - ()
Snow Depth 9.00 in    
Sea Level Pressure  
Sea Level Pressure 30.19 in    
Wind  
Wind Speed 4 mph (ENE)    
Max Wind Speed 22 mph    
Max Gust Speed 29 mph    
Visibility 10 miles    
Events      
Averages and records for this station are not official NWS values.
T = Trace of Precipitation, MM = Missing Value Source: NWS Daily Summary

Daily Weather History Graph

Daily Weather History Graph

Search for Another Location

Airport:

Trip Planner

Search our weather history database for the weather conditions in past years. The results will help you decide how hot, cold, wet, or windy it might be!

Date:

Astronomy

Jan. 12, 2013 Rise Set
Actual Time 9:52 AM AKST 3:49 PM AKST
Civil Twilight 8:51 AM AKST 4:49 PM AKST
Nautical Twilight 7:52 AM AKST 5:48 PM AKST
Astronomical Twilight 6:58 AM AKST 6:42 PM AKST
Moon 9:36 AM AKST (1/12) 6:17 PM AKST (1/12)
Length of Visible Light 7h 57m
Length of Day
5h 56m
New Moon, 2% of the Moon is Illuminated
Jan 12
New Moon
Jan 18
First Quarter
Jan 26
Full
Feb 3
Last Quarter
Feb 9
New

Hourly Weather History & Observations

Time (AKST) Temp. Windchill Dew Point Humidity Pressure Visibility Wind Dir Wind Speed Gust Speed Precip Events Conditions
12:53 AM -4.0 °F -14.6 °F -8.0 °F 83% 30.35 in 10.0 mi NE 4.6 mph - N/A   Clear
1:53 AM -2.9 °F - -7.1 °F 82% 30.36 in 10.0 mi Calm Calm - N/A   Clear
2:11 AM -2.0 °F - -7.1 °F 79% 30.18 in 10.0 mi Calm Calm - N/A   Partly Cloudy
2:23 AM -2.0 °F - -6.0 °F 83% 30.17 in 10.0 mi Calm Calm - N/A   Mostly Cloudy
2:48 AM -0.4 °F - -5.8 °F 78% 30.16 in 10.0 mi Calm Calm - N/A   Overcast
3:53 AM -0.9 °F - -4.0 °F 87% 30.35 in 10.0 mi Calm Calm - N/A   Overcast
4:01 AM -0.9 °F - -5.1 °F 83% 30.16 in 10.0 mi Calm Calm - N/A   Overcast
4:32 AM 1.0 °F - -2.9 °F 83% 30.16 in 10.0 mi Calm Calm - N/A   Overcast
4:53 AM 1.9 °F - -2.0 °F 83% 30.32 in 10.0 mi Calm Calm - N/A   Overcast
5:53 AM 3.0 °F - 1.0 °F 91% 30.31 in 10.0 mi Calm Calm - N/A   Overcast
6:02 AM 3.9 °F - 1.0 °F 88% 30.14 in 10.0 mi Calm Calm - N/A   Overcast
6:53 AM 5.0 °F - 1.9 °F 87% 30.29 in 10.0 mi Calm Calm - N/A   Overcast
7:53 AM 6.1 °F - 3.0 °F 87% 30.28 in 10.0 mi Calm Calm - N/A   Overcast
8:53 AM 7.0 °F 0.1 °F 3.9 °F 87% 30.27 in 10.0 mi NNW 3.5 mph - N/A   Overcast
9:53 AM 8.1 °F 1.4 °F 5.0 °F 87% 30.25 in 10.0 mi North 3.5 mph - N/A   Overcast
10:53 AM 10.0 °F 0.4 °F 7.0 °F 87% 30.26 in 10.0 mi North 5.8 mph - N/A   Overcast
11:53 AM 10.9 °F 2.9 °F 8.1 °F 88% 30.27 in 10.0 mi North 4.6 mph - N/A   Overcast
12:53 PM 12.9 °F 3.8 °F 10.0 °F 88% 30.23 in 10.0 mi NW 5.8 mph - N/A   Overcast
1:53 PM 14.0 °F 8.2 °F 10.9 °F 88% 30.22 in 10.0 mi NNW 3.5 mph - N/A   Overcast
2:53 PM 15.1 °F - 12.0 °F 88% 30.20 in 10.0 mi Calm Calm - N/A   Overcast
4:53 PM 19.0 °F 12.3 °F 16.0 °F 88% 30.16 in 10.0 mi North 4.6 mph - N/A   Overcast
5:53 PM 19.0 °F 13.9 °F 16.0 °F 88% 30.15 in 10.0 mi Variable 3.5 mph - N/A   Overcast
6:53 PM 25.0 °F 15.5 °F 23.0 °F 92% 30.11 in 10.0 mi SSE 9.2 mph - N/A   Overcast
7:53 PM 28.0 °F 16.1 °F 24.1 °F 85% 30.09 in 10.0 mi SSE 16.1 mph - N/A   Overcast
8:53 PM 30.9 °F 19.4 °F 27.0 °F 85% 30.05 in 10.0 mi SSE 17.3 mph - N/A   Overcast
9:27 PM 30.9 °F 19.1 °F 27.0 °F 85% 29.92 in 10.0 mi SSE 18.4 mph 27.6 mph N/A   Overcast
9:53 PM 32.0 °F 19.5 °F 27.0 °F 82% 30.04 in 10.0 mi SSE 21.9 mph 28.8 mph N/A   Mostly Cloudy
10:53 PM 32.0 °F 20.1 °F 27.0 °F 82% 30.04 in 10.0 mi SSE 19.6 mph - N/A   Partly Cloudy
11:53 PM 33.1 °F 20.9 °F 27.0 °F 78% 30.01 in 10.0 mi SSE 21.9 mph - N/A   Mostly Cloudy